Dewpoint
46 46 47 47 47 47 47 48 49 50 50 50 50 50 51 51 49 31 32 46 52 56 46 35 37 35 40 36 30 27 22 17 17 18 16 22 21 22 21 18 19 28 52 54 61
45 45 46 46 47 47 47 49 50 50 50 51 51 50 50 50 42 27 43 55 55 54 27 29 31 33 34 38 32 26 23 15 22 20 18 19 19 19 21 20 20 21 51 59 62
45 45 45 46 46 47 48 49 50 50 50 51 51 51 51 47 26 22 49 54 54 43 26 26 29 35 28 35 37 31 22 26 18 26 29 20 19 22 20 17 19 17 26 57 60
44 44 45 45 46 47 48 49 49 50 50 51 51 50 49 38 9 22 49 48 47 31 26 25 27 29 32 29 31 29 33 31 31 29 32 33 32 27 24 22 23 23 24 53 57
46 46 45 45 46 47 48 48 49 50 50 51 51 50 35 24 22 29 43 39 30 27 26 24 23 24 22 23 24 28 27 25 25 27 29 32 32 32 31 27 23 22 22 23 47
47 46 46 46 46 47 47 48 49 49 50 51 50 47 24 18 27 34 34 32 31 29 26 25 24 24 22 22 22 25 22 20 21 24 26 26 29 32 29 23 21 21 20 21 23
47 47 47 47 47 47 47 49 50 50 50 50 49 40 26 23 34 37 34 31 32 29 26 26 26 24 23 21 23 22 16 14 17 25 25 28 22 26 29 29 27 23 21 21 22
48 47 47 47 47 47 48 50 51 50 49 49 47 38 20 29 37 29 31 27 28 29 28 29 27 26 24 24 22 19 17 11 17 14 31 32 16 14 23 27 27 27 23 22 23
48 48 47 48 48 48 49 50 51 50 48 46 39 34 14 29 24 26 30 26 30 31 33 32 27 25 24 21 18 19 10 13 13 19 20 25 28 30 33 34 31 26 23 23 24
48 48 47 47 48 48 49 48 49 47 45 42 39 17 14 20 25 26 25 32 32 32 28 27 25 23 23 20 13 16 18 17 16 15 16 16 18 25 30 35 36 35 32 26 25
48 48 47 46 47 48 41 32 27 23 31 25 22 20 22 27 25 18 25 26 30 26 21 29 23 21 24 25 23 23 22 20 19 20 18 16 13 20 28 32 35 36 36 33 27
48 48 47 45 46 48 40 37 35 34 23 28 27 28 28 28 18 17 23 20 25 18 22 22 20 25 27 27 27 25 24 22 22 20 18 16 16 17 32 30 31 35 35 37 36
48 48 46 45 47 42 41 40 40 38 28 18 26 25 21 22 18 17 20 24 27 14 17 23 20 27 20 25 25 25 26 25 23 23 19 19 19 22 29 30 27 35 36 36 32
48 47 46 45 41 39 40 42 41 37 17 8 11 9 14 16 17 19 20 24 16 14 19 21 22 16 23 24 25 25 26 29 27 24 15 25 13 29 33 32 32 32 31 33 39
47 45 45 41 39 39 41 43 41 33 13 8 12 13 15 16 17 19 21 19 16 17 17 12 15 19 24 24 29 28 30 31 28 22 20 18 27 28 33 31 31 31 32 31 36
47 44 44 34 38 40 42 39 33 23 8 15 13 11 13 14 16 20 22 22 19 18 17 16 18 27 29 29 30 32 31 27 22 21 20 18 27 31 34 34 32 30 29 30 30
45 44 43 38 38 41 43 35 22 16 14 11 7 11 14 13 16 19 20 20 18 10 13 16 17 21 28 26 28 29 28 17 16 20 16 24 24 30 35 37 34 31 27 27 29
45 45 41 41 37 40 37 25 11 5 16 10 10 14 13 15 16 17 19 18 20 18 17 15 11 19 21 26 26 30 31 21 13 15 5 18 26 27 36 37 38 31 31 29 28
40 35 37 38 40 39 31 21 17 11 17 11 13 10 13 15 15 17 20 20 21 21 14 16 14 21 20 23 21 26 25 31 26 27 20 24 29 29 34 36 37 37 32 32 32
33 32 34 41 40 36 31 20 18 18 13 12 9 12 11 14 14 17 16 21 20 21 23 19 16 20 20 22 21 19 20 27 28 19 18 22 20 24 31 34 35 37 35 32 33
32 27 36 41 39 33 27 23 22 25 18 14 14 14 14 14 17 19 15 21 22 19 23 21 22 18 21 22 18 18 19 24 29 26 20 18 21 31 32 36 35 36 38 38 34
33 27 38 40 32 30 26 26 26 23 24 18 20 17 16 16 17 19 16 18 24 22 18 23 24 19 14 19 18 22 21 20 23 20 23 23 21 30 31 35 37 36 36 38 36
32 33 36 36 23 25 28 27 28 20 20 21 19 19 19 17 19 20 19 25 25 23 20 20 22 15 5 11 16 16 18 20 22 26 23 18 21 30 32 32 34 36 34 34 33
32 30 33 35 29 22 24 26 26 24 20 19 19 20 19 18 20 20 20 24 24 23 26 25 21 15 11 13 17 13 15 20 20 20 21 23 24 28 29 28 27 30 29 29 31
33 32 32 29 29 27 25 23 22 22 22 22 18 18 19 19 22 20 21 21 21 25 22 22 16 17 18 19 18 15 17 20 17 17 20 22 21 22 23 23 25 26 25 26 29
31 31 29 27 29 27 27 26 22 23 24 21 19 21 21 20 19 21 20 19 18 22 20 23 18 17 14 15 14 16 18 18 20 21 21 19 18 23 23 22 23 24 24 25 26
34 34 31 28 29 26 24 27 25 26 26 23 22 23 21 21 23 22 24 24 22 21 20 22 21 18 11 13 13 15 15 16 16 18 19 18 19 22 19 21 22 23 25 25 27
Lifted_Index
13 13 12 11 11 11 10 9 8 8 7 8 8 9 9 10 11 11 10 9 8 9 11 11 10 10 8 7 8 7 5 4 4 5 5 5 6 7 7 7 7 5 2 -0 -1
13 13 12 12 11 11 10 9 8 8 7 7 8 9 9 10 11 11 10 9 9 10 12 12 10 9 8 8 7 6 5 5 6 6 6 6 6 7 7 6 7 5 3 0 -1
13 13 12 12 11 11 10 9 8 8 7 7 7 8 9 10 10 11 11 10 10 11 13 12 11 9 8 7 7 6 5 6 8 8 8 7 7 7 6 6 7 6 4 1 -1
13 13 13 12 12 11 10 9 9 9 8 8 8 8 9 9 9 11 11 11 12 13 13 12 10 8 7 7 7 6 6 8 8 9 8 8 7 6 6 6 8 8 7 3 1
13 13 12 12 12 11 11 10 10 9 9 8 9 10 10 10 10 11 12 12 13 13 13 12 10 8 7 7 7 7 8 9 9 9 9 9 8 6 5 7 8 9 8 6 5
12 12 12 12 12 11 11 11 10 10 9 9 10 11 11 11 12 12 13 13 13 13 13 12 11 10 9 8 9 9 8 9 10 11 10 9 8 6 5 6 8 9 9 8 8
12 12 12 12 12 12 11 11 10 10 10 10 11 12 12 12 12 12 13 13 13 13 13 13 13 12 12 11 11 10 8 9 10 11 11 9 7 6 6 7 7 7 8 9 9
11 12 12 12 12 12 11 10 10 10 10 10 11 12 12 12 12 12 13 13 13 12 12 13 13 13 13 13 12 10 8 7 10 12 11 9 7 7 8 8 7 7 7 8 8
11 11 12 12 12 12 11 10 10 10 10 11 12 12 12 12 12 12 13 13 12 12 12 12 13 13 13 12 10 9 8 8 10 13 13 10 8 9 9 8 7 7 6 7 8
11 11 12 12 12 12 11 11 10 11 11 11 12 12 12 12 12 13 13 13 12 12 12 12 12 12 13 11 9 9 10 10 11 13 14 13 11 11 10 8 7 6 6 6 7
11 11 12 12 12 12 12 12 11 11 11 11 12 12 12 12 12 13 13 13 12 11 10 11 10 11 12 11 10 10 11 11 12 13 14 14 14 13 11 9 8 6 6 6 6
11 11 12 12 12 12 12 12 12 11 11 11 12 12 12 12 12 13 13 12 11 9 9 10 10 10 11 10 9 8 8 8 9 11 12 14 14 13 11 9 8 7 6 5 5
11 11 12 12 12 11 12 11 11 11 10 11 12 12 12 12 12 12 13 12 10 9 9 9 10 10 9 7 5 4 4 4 5 7 9 11 11 11 10 9 8 7 6 5 5
11 12 12 12 12 11 11 11 11 10 8 9 11 12 12 12 12 12 13 12 10 9 9 9 10 8 6 4 3 2 2 2 3 4 6 7 7 7 7 7 8 7 6 5 5
11 12 12 12 11 11 11 11 10 8 6 7 10 11 11 12 12 12 12 12 11 10 9 9 9 7 4 3 2 2 2 1 1 2 3 4 4 4 3 4 5 6 6 5 5
12 12 13 12 11 11 11 10 8 6 4 6 9 10 10 10 11 11 11 11 10 9 9 9 8 6 4 3 3 2 1 1 1 1 1 1 1 2 1 2 2 3 4 4 4
12 13 13 12 12 11 10 9 6 4 5 6 7 8 8 8 9 9 9 9 8 7 7 7 7 6 4 3 3 2 1 1 0 0 0 0 0 1 1 2 2 3 4 4 4
13 13 14 14 12 11 10 7 5 4 5 6 7 7 7 7 8 8 8 7 8 7 6 6 6 6 5 4 3 2 1 1 0 0 0 0 0 1 2 3 4 4 5 5 5
14 14 15 14 13 11 9 6 5 5 6 7 6 5 5 6 7 7 7 8 9 9 8 6 6 6 6 5 4 2 2 1 1 0 0 0 1 1 2 3 4 5 6 6 6
14 14 14 13 13 11 8 6 6 7 8 7 6 5 5 5 6 6 7 8 10 10 10 8 7 7 7 5 4 3 2 2 1 1 0 0 1 1 2 3 4 4 5 6 7
14 13 12 12 12 10 7 6 8 9 9 8 6 6 5 5 5 5 6 8 10 11 10 9 8 7 7 6 5 4 4 3 2 1 1 1 1 2 2 3 4 4 5 6 6
12 11 11 10 10 9 7 8 9 9 9 9 8 7 7 6 6 6 7 8 10 10 10 9 8 6 6 7 7 6 5 4 3 2 2 1 2 3 3 4 4 4 4 5 6
12 11 10 10 9 8 8 8 9 9 9 9 9 8 8 7 6 6 7 9 10 10 10 9 7 5 5 7 8 7 6 5 4 3 3 2 3 3 4 4 4 4 5 6 6
11 11 10 9 9 9 8 8 8 9 9 9 9 9 8 7 7 7 8 10 10 10 10 9 7 5 5 7 8 7 6 6 5 4 4 4 4 4 4 5 5 5 6 6 7
12 11 10 9 9 9 9 8 8 8 9 9 9 8 8 7 7 7 8 9 10 10 10 9 7 6 6 7 8 7 7 6 6 5 5 5 5 5 5 6 6 6 6 6 7
12 11 10 9 9 9 9 8 8 8 9 9 8 8 8 8 8 8 9 9 9 10 10 9 7 6 6 7 8 7 7 7 6 6 5 5 5 5 5 6 6 6 6 6 7
13 12 10 10 9 8 8 7 8 9 9 9 9 9 9 9 9 9 10 10 10 9 9 8 7 6 6 6 7 6 7 7 7 6 6 6 5 5 5 5 6 7 7 7 7